Terminal Aerodrome Forecast
Issued by NWS

Home | Current Version | Previous Version | Text Only | Print | Product List | Glossary On
Versions: 1 2 3 4 5 6 7 8 9 10 11 12 13 14 15 16 17 18 19 20 21 22 23 24 25 26 27 28 29 30 31 32 33 34 35 36 37 38 39 40 41 42 43 44 45 46 47 48 49 50
148
FTUS41 KCTP 230922 AAB
TAFLNS
TAF AMD
KLNS 230922Z 2309/2406 03003KT 1SM BR OVC002
     FM231100 36004KT 3SM BR BKN005
     FM231300 33007KT 6SM BR BKN015
     FM231500 31008KT P6SM BKN025
     FM231700 33010KT P6SM SCT050
     FM240000 32005KT P6SM SKC=

USA.gov is the U.S. government's official web portal to all federal, state and local government web resources and services.